When you browse on this site, cookies collect data to enhance your experience and personalize the content and advertising you see.
Visit our Privacy Policy to learn more. By continuing to use the site, you agree to this use of cookies and data.

Meteo pe oră la Dzieczynka

Astăzi, 21 Septembrie, Luni

Timp Temperatura Precipitaţii Vânt Presiune Umiditate
00:00 +12°C° 0 mm 3 m/s 756 mmHg 73%
01:00 +13°C° 0 mm 2 m/s 756 mmHg 77%
02:00 +13°C° 0 mm 2 m/s 756 mmHg 80%
03:00 +12°C° 0 mm 2 m/s 755 mmHg 83%
04:00 +12°C° 0 mm 2 m/s 755 mmHg 86%
05:00 +12°C° 0 mm 2 m/s 755 mmHg 84%
06:00 +13°C° 0 mm 2 m/s 755 mmHg 82%
07:00 +14°C° 0 mm 2 m/s 756 mmHg 78%
08:00 +16°C° 0 mm 2 m/s 756 mmHg 70%
09:00 +18°C° 0 mm 2 m/s 756 mmHg 63%
10:00 +20°C° 0 mm 2 m/s 756 mmHg 55%
11:00 +21°C° 0 mm 2 m/s 755 mmHg 51%
12:00 +23°C° 0 mm 2 m/s 755 mmHg 46%
13:00 +25°C° 0 mm 2 m/s 755 mmHg 42%
14:00 +25°C° 0 mm 2 m/s 755 mmHg 43%
15:00 +25°C° 0 mm 2 m/s 754 mmHg 44%
16:00 +25°C° 0 mm 2 m/s 754 mmHg 45%
17:00 +23°C° 0 mm 2 m/s 754 mmHg 48%
18:00 +20°C° 0 mm 2 m/s 754 mmHg 51%
19:00 +19°C° 0 mm 2 m/s 754 mmHg 55%
20:00 +18°C° 0 mm 2 m/s 754 mmHg 57%
21:00 +17°C° 0 mm 2 m/s 754 mmHg 60%
22:00 +17°C° 0 mm 2 m/s 754 mmHg 63%
23:00 +17°C° 0 mm 2 m/s 753 mmHg 65%

Mâine, 22 Septembrie, Marţi

Timp Temperatura Precipitaţii Vânt Presiune Umiditate
00:00 +16°C° 0 mm 2 m/s 753 mmHg 67%
01:00 +16°C° 0 mm 2 m/s 753 mmHg 70%
02:00 +16°C° 0 mm 3 m/s 753 mmHg 70%
03:00 +14°C° 0 mm 3 m/s 753 mmHg 69%
04:00 +14°C° 0 mm 3 m/s 752 mmHg 69%
05:00 +14°C° 0 mm 3 m/s 752 mmHg 67%
06:00 +16°C° 0 mm 3 m/s 752 mmHg 65%
07:00 +16°C° 0 mm 3 m/s 752 mmHg 63%
08:00 +18°C° 0 mm 4 m/s 752 mmHg 56%
09:00 +21°C° 0 mm 4 m/s 752 mmHg 50%
10:00 +23°C° 0 mm 5 m/s 752 mmHg 43%
11:00 +25°C° 0 mm 5 m/s 751 mmHg 41%
12:00 +26°C° 0 mm 5 m/s 751 mmHg 39%
13:00 +27°C° 0 mm 6 m/s 751 mmHg 37%
14:00 +27°C° 0 mm 5 m/s 750 mmHg 40%
15:00 +26°C° 0 mm 4 m/s 750 mmHg 43%
16:00 +26°C° 0 mm 4 m/s 749 mmHg 46%
17:00 +23°C° 0 mm 4 m/s 749 mmHg 50%
18:00 +22°C° 0 mm 3 m/s 749 mmHg 53%
19:00 +20°C° 0 mm 3 m/s 749 mmHg 57%
20:00 +20°C° 0 mm 3 m/s 749 mmHg 59%
21:00 +19°C° 0 mm 3 m/s 749 mmHg 61%
22:00 +18°C° 0 mm 3 m/s 749 mmHg 63%
23:00 +18°C° 0 mm 3 m/s 748 mmHg 63%

Poimâine, 23 Septembrie, Miercuri

Timp Temperatura Precipitaţii Vânt Presiune Umiditate
00:00 +18°C° 0 mm 3 m/s 748 mmHg 63%
01:00 +17°C° 0 mm 3 m/s 748 mmHg 64%
02:00 +17°C° 0 mm 3 m/s 748 mmHg 64%
03:00 +17°C° 0 mm 3 m/s 748 mmHg 64%
04:00 +16°C° 0 mm 3 m/s 747 mmHg 63%
05:00 +17°C° 0 mm 3 m/s 747 mmHg 64%
06:00 +17°C° 0 mm 3 m/s 747 mmHg 64%
07:00 +17°C° 0 mm 3 m/s 747 mmHg 65%
08:00 +19°C° 0 mm 3 m/s 747 mmHg 60%
09:00 +21°C° 0 mm 3 m/s 747 mmHg 56%
10:00 +23°C° 0 mm 4 m/s 747 mmHg 51%
11:00 +25°C° 0 mm 3 m/s 746 mmHg 50%
12:00 +26°C° 0 mm 3 m/s 746 mmHg 48%
13:00 +27°C° 0 mm 3 m/s 746 mmHg 46%
14:00 +27°C° 0 mm 3 m/s 746 mmHg 48%
15:00 +26°C° 0 mm 2 m/s 746 mmHg 50%
16:00 +26°C° 0 mm 2 m/s 745 mmHg 52%
17:00 +25°C° 0 mm 2 m/s 746 mmHg 56%
18:00 +23°C° 0 mm 2 m/s 746 mmHg 61%
19:00 +21°C° 0 mm 2 m/s 746 mmHg 66%
20:00 +20°C° 0.1 mm 2 m/s 746 mmHg 70%
21:00 +19°C° 0.1 mm 2 m/s 746 mmHg 73%
22:00 +19°C° 0.1 mm 2 m/s 746 mmHg 77%
23:00 +18°C° 0.1 mm 2 m/s 746 mmHg 77%

24 Septembrie, Joi

Timp Temperatura Precipitaţii Vânt Presiune Umiditate
00:00 +19°C° 0.1 mm 1 m/s 746 mmHg 78%
01:00 +19°C° 0.1 mm 1 m/s 746 mmHg 78%
02:00 +18°C° 0 mm 1 m/s 746 mmHg 78%
03:00 +18°C° 0 mm 1 m/s 746 mmHg 78%
04:00 +16°C° 0 mm 1 m/s 746 mmHg 79%
05:00 +17°C° 0 mm 2 m/s 746 mmHg 77%
06:00 +17°C° 0 mm 2 m/s 746 mmHg 76%
07:00 +18°C° 0 mm 2 m/s 747 mmHg 75%
08:00 +19°C° 0 mm 2 m/s 747 mmHg 69%
09:00 +21°C° 0 mm 2 m/s 747 mmHg 63%
10:00 +24°C° 0 mm 3 m/s 747 mmHg 57%
11:00 +25°C° 0 mm 3 m/s 747 mmHg 54%
12:00 +26°C° 0 mm 3 m/s 747 mmHg 50%
13:00 +27°C° 0 mm 3 m/s 747 mmHg 46%
14:00 +26°C° 0 mm 3 m/s 746 mmHg 48%
15:00 +26°C° 0 mm 3 m/s 746 mmHg 50%
16:00 +26°C° 0 mm 3 m/s 746 mmHg 52%
17:00 +24°C° 0 mm 2 m/s 746 mmHg 57%
18:00 +23°C° 0 mm 2 m/s 746 mmHg 62%
19:00 +20°C° 0 mm 2 m/s 746 mmHg 67%
20:00 +19°C° 0.1 mm 2 m/s 746 mmHg 70%
21:00 +19°C° 0.1 mm 2 m/s 746 mmHg 72%
22:00 +18°C° 0.1 mm 2 m/s 746 mmHg 74%
23:00 +18°C° 0 mm 2 m/s 746 mmHg 75%

25 Septembrie, Vineri

Timp Temperatura Precipitaţii Vânt Presiune Umiditate
00:00 +18°C° 0 mm 2 m/s 745 mmHg 76%
01:00 +17°C° 0 mm 2 m/s 745 mmHg 78%
02:00 +17°C° 0.1 mm 2 m/s 745 mmHg 79%
03:00 +17°C° 0.1 mm 2 m/s 744 mmHg 80%
04:00 +17°C° 0.1 mm 2 m/s 744 mmHg 81%
05:00 +17°C° 0 mm 2 m/s 743 mmHg 82%
06:00 +17°C° 0 mm 2 m/s 742 mmHg 82%
07:00 +17°C° 0 mm 2 m/s 742 mmHg 82%
08:00 +18°C° 0 mm 3 m/s 742 mmHg 77%
09:00 +20°C° 0 mm 4 m/s 741 mmHg 72%
10:00 +21°C° 0 mm 4 m/s 741 mmHg 67%
11:00 +20°C° 0.3 mm 4 m/s 741 mmHg 74%
12:00 +19°C° 0.3 mm 4 m/s 740 mmHg 80%
13:00 +18°C° 0.3 mm 4 m/s 740 mmHg 87%
14:00 +17°C° 0.5 mm 4 m/s 740 mmHg 88%
15:00 +15°C° 0.5 mm 4 m/s 740 mmHg 90%
16:00 +15°C° 0.5 mm 4 m/s 740 mmHg 92%
17:00 +16°C° 0.7 mm 3 m/s 740 mmHg 92%
18:00 +14°C° 0.7 mm 3 m/s 740 mmHg 93%
19:00 +15°C° 0.7 mm 2 m/s 740 mmHg 94%
20:00 +15°C° 0.4 mm 2 m/s 740 mmHg 94%
21:00 +15°C° 0.4 mm 2 m/s 740 mmHg 94%
22:00 +14°C° 0.4 mm 3 m/s 740 mmHg 94%
23:00 +14°C° 0.1 mm 3 m/s 739 mmHg 94%

26 Septembrie, Sâmbătă

Timp Temperatura Precipitaţii Vânt Presiune Umiditate
00:00 +15°C° 0.1 mm 2 m/s 739 mmHg 94%
01:00 +15°C° 0.1 mm 2 m/s 739 mmHg 94%
02:00 +14°C° 0.2 mm 3 m/s 739 mmHg 94%
03:00 +13°C° 0.2 mm 3 m/s 739 mmHg 94%
04:00 +13°C° 0.2 mm 3 m/s 739 mmHg 94%
05:00 +13°C° 0.1 mm 3 m/s 739 mmHg 93%
06:00 +13°C° 0.1 mm 4 m/s 739 mmHg 93%
07:00 +13°C° 0.1 mm 4 m/s 739 mmHg 92%
08:00 +13°C° 0.1 mm 4 m/s 739 mmHg 91%
09:00 +14°C° 0.1 mm 4 m/s 739 mmHg 90%
10:00 +14°C° 0.1 mm 4 m/s 739 mmHg 89%
11:00 +14°C° 0.1 mm 4 m/s 739 mmHg 89%
12:00 +14°C° 0.1 mm 4 m/s 739 mmHg 88%
13:00 +14°C° 0.1 mm 4 m/s 739 mmHg 88%
14:00 +14°C° 0.5 mm 4 m/s 739 mmHg 89%
15:00 +14°C° 0.5 mm 4 m/s 738 mmHg 90%
16:00 +14°C° 0.5 mm 5 m/s 738 mmHg 92%
17:00 +14°C° 0.8 mm 4 m/s 738 mmHg 93%
18:00 +14°C° 0.8 mm 4 m/s 737 mmHg 95%
19:00 +14°C° 0.8 mm 4 m/s 737 mmHg 96%
20:00 +14°C° 0.2 mm 3 m/s 737 mmHg 96%
21:00 +14°C° 0.2 mm 3 m/s 737 mmHg 96%
22:00 +14°C° 0.2 mm 3 m/s 737 mmHg 96%
23:00 +14°C° 0.5 mm 3 m/s 736 mmHg 96%
Arată mai mult